St. Paul Lake Elmo, MN

7:47 PM CST on November 11, 2019 (GMT -0600)
St. Paul Lake Elmo

Weather History for K21D - September, 2019

Change the Weather History Date:

Tuesday, September 17, 2019

  Actual Average (KSTP) Record (KSTP)
Temperature  
Mean Temperature 76 °F -  
Max Temperature 84 °F 69 °F 86 °F (2007)
Min Temperature 69 °F 49 °F 48 °F (1999)
Cooling Degree Days 12    
Growing Degree Days 26 (Base 50)    
Moisture  
Dew Point 67 °F    
Average Humidity 76    
Maximum Humidity 88    
Minimum Humidity 62    
Precipitation  
Precipitation 0.00 in - - ()
Sea Level Pressure  
Sea Level Pressure 29.98 in    
Wind  
Wind Speed 9 mph (WSW)    
Max Wind Speed 17 mph    
Max Gust Speed 24 mph    
Visibility 9 miles    
Events      
Averages and records for this station are not official NWS values.
T = Trace of Precipitation, MM = Missing Value Source: NWS Daily Summary

Daily Weather History Graph

Daily Weather History Graph

Search for Another Location

Airport or City:

Astronomy

Sep. 17, 2019 Rise Set
Actual Time 6:52 AM CDT 7:18 PM CDT
Civil Twilight 6:22 AM CDT 7:48 PM CDT
Nautical Twilight 5:48 AM CDT 8:22 PM CDT
Astronomical Twilight 5:12 AM CDT 8:58 PM CDT
Moon 9:14 PM CDT (9/17) 10:04 AM CDT (9/17)
Length of Visible Light 13h 25m
Length of Day
12h 26m
Waning Gibbous, 89% of the Moon is Illuminated
Sep 17
Waning Gibbous
Sep 21
Last Quarter
Sep 28
New
Oct 5
First Quarter
Oct 13
Full

Hourly Weather History & Observations

Time (CDT) Temp. Heat Index Dew Point Humidity Pressure Visibility Wind Dir Wind Speed Gust Speed Precip Events Conditions
12:15 AM 71.6 °F - 66.2 °F 83% 30.01 in 10.0 mi WSW 6.9 mph - N/A   Clear
12:16 AM 71.6 °F - 66.2 °F 83% 30.01 in 10.0 mi WSW 8.1 mph - N/A   Clear
12:35 AM 71.6 °F - 66.2 °F 83% 30.02 in 10.0 mi WSW 6.9 mph - N/A   Clear
1:36 AM 71.6 °F - 66.2 °F 83% 30.02 in 10.0 mi WSW 6.9 mph - N/A   Clear
1:55 AM 71.6 °F - 64.4 °F 78% 30.02 in 10.0 mi WSW 5.8 mph - N/A   Clear
1:56 AM 69.8 °F - 64.4 °F 83% 30.02 in 10.0 mi WSW 5.8 mph - N/A   Clear
2:15 AM 69.8 °F - 64.4 °F 83% 30.02 in 10.0 mi WSW 6.9 mph - N/A   Clear
2:20 AM 69.8 °F - 64.4 °F 83% 30.02 in 10.0 mi WSW 8.1 mph - N/A   Clear
2:37 AM 69.8 °F - 64.4 °F 83% 30.01 in 10.0 mi WSW 5.8 mph - N/A   Clear
2:56 AM 69.8 °F - 64.4 °F 83% 30.01 in 10.0 mi WSW 8.1 mph - N/A   Clear
3:15 AM 69.8 °F - 64.4 °F 83% 30.01 in 10.0 mi WSW 9.2 mph - N/A   Clear
3:16 AM 69.8 °F - 64.4 °F 83% 30.01 in 10.0 mi WSW 10.4 mph - N/A   Clear
3:35 AM 69.8 °F - 64.4 °F 83% 30.02 in 10.0 mi WSW 8.1 mph - N/A   Clear
3:36 AM 69.8 °F - 64.4 °F 83% 30.02 in 10.0 mi WSW 8.1 mph - N/A   Clear
3:59 AM 69.8 °F - 64.4 °F 83% 30.02 in 10.0 mi WSW 6.9 mph - N/A   Clear
4:16 AM 69.8 °F - 64.4 °F 83% 30.02 in 10.0 mi WSW 8.1 mph - N/A   Clear
4:35 AM 69.8 °F - 64.4 °F 83% 30.02 in 10.0 mi WSW 8.1 mph - N/A   Clear
4:55 AM 69.8 °F - 64.4 °F 83% 30.02 in 10.0 mi WSW 8.1 mph - N/A   Clear
4:56 AM 69.8 °F - 64.4 °F 83% 30.02 in 10.0 mi WSW 9.2 mph - N/A   Clear
5:15 AM 69.8 °F - 64.4 °F 83% 30.02 in 10.0 mi WSW 8.1 mph - N/A   Clear
5:38 AM 69.8 °F - 64.4 °F 83% 30.02 in 10.0 mi WSW 6.9 mph - N/A   Clear
5:55 AM 69.8 °F - 64.4 °F 83% 30.02 in 10.0 mi WSW 8.1 mph - N/A   Clear
6:15 AM 69.8 °F - 62.6 °F 78% 30.03 in 10.0 mi WSW 6.9 mph - N/A   Clear
6:16 AM 69.8 °F - 62.6 °F 78% 30.02 in 10.0 mi WSW 8.1 mph - N/A   Clear
6:35 AM 69.8 °F - 62.6 °F 78% 30.03 in 10.0 mi WSW 9.2 mph - N/A   Clear
6:36 AM 69.8 °F - 62.6 °F 78% 30.03 in 10.0 mi WSW 9.2 mph - N/A   Clear
6:58 AM 69.8 °F - 62.6 °F 78% 30.04 in 10.0 mi WSW 6.9 mph - N/A   Clear
7:16 AM 69.8 °F - 62.6 °F 78% 30.04 in 10.0 mi WSW 6.9 mph - N/A   Clear
7:36 AM 69.8 °F - 62.6 °F 78% 30.04 in 10.0 mi WSW 8.1 mph - N/A   Clear
7:55 AM 69.8 °F - 62.6 °F 78% 30.04 in 10.0 mi WSW 9.2 mph - N/A   Clear
7:56 AM 69.8 °F - 62.6 °F 78% 30.04 in 10.0 mi WSW 10.4 mph - N/A   Clear
8:15 AM 69.8 °F - 62.6 °F 78% 30.03 in 10.0 mi WSW 9.2 mph - N/A   Clear
8:19 AM 69.8 °F - 62.6 °F 78% 30.03 in 10.0 mi WSW 9.2 mph - N/A   Clear
8:37 AM 69.8 °F - 62.6 °F 78% 30.04 in 10.0 mi WSW 9.2 mph - N/A   Clear
8:55 AM 69.8 °F - 62.6 °F 78% 30.03 in 10.0 mi WSW 10.4 mph - N/A   Clear
9:15 AM 69.8 °F - 62.6 °F 78% 30.03 in 10.0 mi WSW 10.4 mph - N/A   Clear
9:16 AM 69.8 °F - 62.6 °F 78% 30.03 in 10.0 mi WSW 10.4 mph - N/A   Clear
9:35 AM 69.8 °F - 64.4 °F 83% 30.02 in 10.0 mi WSW 10.4 mph 17.3 mph N/A   Clear
9:36 AM 69.8 °F - 64.4 °F 83% 30.02 in 10.0 mi WSW 10.4 mph 17.3 mph N/A   Clear
10:16 AM 71.6 °F - 64.4 °F 78% 30.02 in 10.0 mi WSW 11.5 mph - N/A   Clear
10:36 AM 71.6 °F - 64.4 °F 78% 30.02 in 10.0 mi WSW 9.2 mph - N/A   Clear
10:56 AM 73.4 °F - 66.2 °F 78% 30.02 in 10.0 mi WSW 6.9 mph - N/A   Clear
11:15 AM 73.4 °F - 66.2 °F 78% 30.02 in 10.0 mi WSW 8.1 mph - N/A   Clear
11:37 AM 77.0 °F - 68.0 °F 74% 30.01 in 10.0 mi WSW 8.1 mph - N/A   Clear
11:56 AM 77.0 °F - 68.0 °F 74% 30.01 in 10.0 mi WSW 15.0 mph 19.6 mph N/A   Clear
12:15 PM 78.8 °F - 68.0 °F 69% 30.00 in 10.0 mi WSW 13.8 mph 19.6 mph N/A   Clear
12:16 PM 78.8 °F - 68.0 °F 69% 30.00 in 10.0 mi WSW 12.7 mph 19.6 mph N/A   Clear
12:35 PM 78.8 °F - 69.8 °F 74% 29.99 in 10.0 mi WSW 12.7 mph - N/A   Clear
12:36 PM 78.8 °F - 69.8 °F 74% 29.99 in 7.0 mi WSW 12.7 mph - N/A   Clear
12:58 PM 80.6 °F 83.9 °F 69.8 °F 70% 29.99 in 7.0 mi WSW 10.4 mph - N/A   Clear
1:17 PM 82.4 °F 86.3 °F 69.8 °F 66% 29.98 in 5.0 mi WSW 17.3 mph 21.9 mph N/A   Haze
1:36 PM 80.6 °F 83.9 °F 69.8 °F 70% 29.97 in 7.0 mi WSW 12.7 mph 17.3 mph N/A   Clear
1:55 PM 82.4 °F 87.2 °F 71.6 °F 70% 29.96 in 7.0 mi WSW 12.7 mph 20.7 mph N/A   Clear
1:56 PM 82.4 °F 87.2 °F 71.6 °F 70% 29.97 in 7.0 mi WSW 12.7 mph 20.7 mph N/A   Clear
2:15 PM 84.2 °F 89.6 °F 71.6 °F 66% 29.96 in 10.0 mi WSW 12.7 mph 18.4 mph N/A   Clear
2:20 PM 82.4 °F 87.2 °F 71.6 °F 70% 29.96 in 7.0 mi WSW 13.8 mph 20.7 mph N/A   Clear
2:37 PM 84.2 °F 89.6 °F 71.6 °F 66% 29.95 in 7.0 mi WSW 16.1 mph 20.7 mph N/A   Clear
2:55 PM 84.2 °F 89.6 °F 71.6 °F 66% 29.95 in 10.0 mi WSW 12.7 mph 24.2 mph N/A   Clear
3:15 PM 84.2 °F 88.4 °F 69.8 °F 62% 29.94 in 10.0 mi WSW 16.1 mph 24.2 mph N/A   Clear
3:16 PM 84.2 °F 88.4 °F 69.8 °F 62% 29.94 in 5.0 mi WSW 16.1 mph 24.2 mph N/A   Haze
3:35 PM 84.2 °F 88.4 °F 69.8 °F 62% 29.94 in 10.0 mi WSW 13.8 mph 20.7 mph N/A   Clear
3:59 PM 84.2 °F 89.6 °F 71.6 °F 66% 29.93 in 10.0 mi WSW 17.3 mph 24.2 mph N/A   Clear
4:17 PM 84.2 °F 89.6 °F 71.6 °F 66% 29.93 in 7.0 mi WSW 11.5 mph 16.1 mph N/A   Clear
4:36 PM 84.2 °F 89.6 °F 71.6 °F 66% 29.92 in 10.0 mi WSW 10.4 mph 17.3 mph N/A   Clear
4:55 PM 84.2 °F 89.6 °F 71.6 °F 66% 29.92 in 7.0 mi WSW 12.7 mph - N/A   Clear
4:56 PM 84.2 °F 89.6 °F 71.6 °F 66% 29.92 in 7.0 mi WSW 10.4 mph - N/A   Clear
5:15 PM 82.4 °F 87.2 °F 71.6 °F 70% 29.92 in 10.0 mi WSW 13.8 mph 19.6 mph N/A   Clear
5:20 PM 82.4 °F 87.2 °F 71.6 °F 70% 29.92 in 7.0 mi WSW 12.7 mph 19.6 mph N/A   Clear
5:37 PM 82.4 °F 86.3 °F 69.8 °F 66% 29.92 in 10.0 mi WSW 13.8 mph 19.6 mph N/A   Clear
5:56 PM 82.4 °F 86.3 °F 69.8 °F 66% 29.92 in 10.0 mi WSW 12.7 mph 19.6 mph N/A   Clear
6:15 PM 82.4 °F 86.3 °F 69.8 °F 66% 29.92 in 7.0 mi WSW 10.4 mph 18.4 mph N/A   Clear
6:16 PM 82.4 °F 86.3 °F 69.8 °F 66% 29.92 in 7.0 mi WSW 11.5 mph 18.4 mph N/A   Clear
6:35 PM 80.6 °F 83.9 °F 69.8 °F 70% 29.92 in 7.0 mi WSW 10.4 mph 16.1 mph N/A   Clear
6:58 PM 78.8 °F - 69.8 °F 74% 29.92 in 10.0 mi WSW 11.5 mph 16.1 mph N/A   Clear
7:16 PM 78.8 °F - 69.8 °F 74% 29.92 in 7.0 mi WSW 10.4 mph - N/A   Clear
7:35 PM 78.8 °F - 69.8 °F 74% 29.92 in 7.0 mi WSW 11.5 mph 17.3 mph N/A   Clear
7:36 PM 78.8 °F - 69.8 °F 74% 29.92 in 10.0 mi WSW 11.5 mph 17.3 mph N/A   Clear
7:55 PM 77.0 °F - 69.8 °F 78% 29.92 in 10.0 mi WSW 13.8 mph 18.4 mph N/A   Clear
7:56 PM 77.0 °F - 69.8 °F 78% 29.92 in 10.0 mi WSW 13.8 mph 18.4 mph N/A   Clear
8:15 PM 77.0 °F - 69.8 °F 78% 29.93 in 10.0 mi WSW 11.5 mph 18.4 mph N/A   Clear
8:38 PM 77.0 °F - 69.8 °F 78% 29.93 in 10.0 mi WSW 11.5 mph 18.4 mph N/A   Clear
8:55 PM 77.0 °F - 69.8 °F 78% 29.94 in 10.0 mi WSW 13.8 mph 21.9 mph N/A   Clear
9:15 PM 77.0 °F - 69.8 °F 78% 29.94 in 10.0 mi WSW 12.7 mph 21.9 mph N/A   Clear
9:35 PM 75.2 °F - 69.8 °F 83% 29.94 in 10.0 mi WSW 13.8 mph 24.2 mph N/A   Clear
9:59 PM 73.4 °F - 68.0 °F 83% 29.94 in 10.0 mi WSW 12.7 mph 20.7 mph N/A   Clear
10:16 PM 73.4 °F - 68.0 °F 83% 29.94 in 10.0 mi WSW 12.7 mph 20.7 mph N/A   Clear
10:35 PM 73.4 °F - 68.0 °F 83% 29.95 in 10.0 mi WSW 12.7 mph 17.3 mph N/A   Clear
10:36 PM 71.6 °F - 68.0 °F 88% 29.95 in 10.0 mi WSW 12.7 mph 17.3 mph N/A   Clear
10:55 PM 71.6 °F - 66.2 °F 83% 29.95 in 10.0 mi WSW 13.8 mph - N/A   Clear
10:56 PM 71.6 °F - 66.2 °F 83% 29.95 in 10.0 mi WSW 13.8 mph - N/A   Clear
11:15 PM 71.6 °F - 66.2 °F 83% 29.95 in 10.0 mi WSW 8.1 mph - N/A   Clear
11:37 PM 69.8 °F - 64.4 °F 83% 29.95 in 10.0 mi WSW 11.5 mph 16.1 mph N/A   Clear
11:56 PM 69.8 °F - 64.4 °F 83% 29.95 in 10.0 mi WSW 11.5 mph - N/A   Clear